Home > Weather > Arrecife > Past weeks

Flag for Spain Past Weather in Arrecife, Canary Islands, Spain — Yesterday and Last 2 Weeks

Now
72 °F

Passing clouds.


Feels Like: 72 °F
Forecast: 73 / 83 °F
Wind: 10 mph from North

Location: Lanzarote / Aeropuerto

Current Time: Aug 24, 2016 at 7:50:57 AM

Latest Report: Aug 24, 2016 at 7:00 AM


Visibility: N/A

Pressure: 30.01 "Hg

Humidity: 78%

Dew Point: 64 °F

Location of ArrecifeLocation

Past Weather in Arrecife — Graph

°F

Arrecife Temperature Yesterday

Maximum temperature yesterday: 90 °F (at 2:30 PM)
Minimum temperature yesterday: 72 °F (at 6:30 AM)
Average temperature yesterday: 79 °F

High & Low Weather Summary for the Past Weeks

 TemperatureHumidityPressure
High100 °F (Aug 10, 12:30 PM)89% (Aug 9, 6:30 AM)30.09 "Hg (Aug 9, 6:30 AM)
Low72 °F (Aug 9, 6:00 AM)18% (Aug 10, 11:30 AM)29.80 "Hg (Aug 9, 8:30 PM)
Average79 °F67%29.98 "Hg
* Reported Aug 9 6:00 AM — Aug 24 6:30 AM, Arrecife, Weather by CustomWeather, © 2016

Note: Actual official high and low records may vary slightly from our data, if they occured in-between our weather recording intervals... More about our weather records

Advertising

Arrecife Weather History for the Previous 24 Hours

Scroll right to see more
 ConditionsComfort  
Time TempWeatherWind HumidityBarometerVisibility
6:30 AM
Wed, Aug 24
72 °FPassing clouds.12 mph78%29.98 "HgN/A
6:00 AM72 °FPassing clouds.14 mph78%29.98 "HgN/A
1:00 AM73 °FPassing clouds.10 mph78%30.04 "HgN/A
12:30 AM73 °FPassing clouds.9 mph78%30.04 "HgN/A
12:00 AM73 °FPassing clouds.8 mph78%30.04 "HgN/A
11:30 PM
Tue, Aug 23
73 °FPassing clouds.3 mph78%30.04 "HgN/A
11:00 PM75 °FPassing clouds.7 mph74%30.04 "HgN/A
10:30 PM75 °FPassing clouds.6 mph74%30.04 "HgN/A
10:00 PM77 °FPassing clouds.14 mph47%30.01 "HgN/A
9:30 PM77 °FPassing clouds.3 mph57%30.01 "HgN/A
9:00 PM77 °FPassing clouds.8 mph61%30.01 "HgN/A
8:30 PM79 °FPassing clouds.6 mph51%30.01 "HgN/A
8:00 PM79 °FPassing clouds.10 mph58%29.98 "HgN/A
7:30 PM79 °FPassing clouds.14 mph65%29.98 "HgN/A
7:00 PM81 °FPassing clouds.14 mph58%30.01 "HgN/A
6:30 PM82 °FPassing clouds.16 mph55%30.01 "HgN/A
6:00 PM82 °FPassing clouds.14 mph55%30.01 "HgN/A
5:30 PM82 °FPassing clouds.14 mph55%30.01 "HgN/A
5:00 PM84 °FPassing clouds.15 mph51%30.01 "HgN/A
4:30 PM84 °FPassing clouds.16 mph51%30.01 "HgN/A
4:00 PM86 °FPassing clouds.17 mph46%30.04 "HgN/A
3:30 PM86 °FPassing clouds.15 mph46%30.04 "HgN/A
3:00 PM86 °FPassing clouds.17 mph46%30.04 "HgN/A
2:30 PM90 °FPassing clouds.17 mph36%30.04 "HgN/A
2:00 PM88 °FPassing clouds.13 mph38%30.04 "HgN/A
1:30 PM88 °FPassing clouds.12 mph40%30.04 "HgN/A
1:00 PM84 °FPassing clouds.17 mph51%30.07 "HgN/A
12:30 PM82 °FPassing clouds.18 mph51%30.07 "HgN/A
12:00 PM82 °FPassing clouds.17 mph58%30.07 "HgN/A
11:30 AM81 °FPassing clouds.18 mph58%30.09 "HgN/A
11:00 AM81 °FPassing clouds.16 mph62%30.09 "HgN/A
10:30 AM79 °FPassing clouds.7 mph58%30.07 "HgN/A
10:00 AM77 °FPassing clouds.2 mph65%30.07 "HgN/A
9:30 AM77 °FPassing clouds.2 mph61%30.07 "HgN/A
9:00 AM75 °FPassing clouds.7 mph69%30.07 "HgN/A
8:30 AM73 °FPassing clouds.3 mph74%30.07 "HgN/A
8:00 AM73 °FPassing clouds.3 mph74%30.04 "HgN/A
7:30 AM72 °FPassing clouds.7 mph78%30.04 "HgN/A
7:00 AM72 °FPassing clouds.12 mph78%30.04 "HgN/A
Weather by CustomWeather, © 2016

See weather overviewHow to use our weather pages